TimeEST,TemperatureF,Dew PointF,Humidity,Sea Level PressureIn,VisibilityMPH,Wind Direction,Wind SpeedMPH,Gust SpeedMPH,PrecipitationIn,Events,Conditions,WindDirDegrees,DateUTC
12:54 AM,28.0,21.9,78,30.13,10.0,SSW,6.9,-,N/A,,Clear,210,2012-11-29 05:54:00
1:54 AM,27.0,21.0,78,30.13,10.0,WSW,3.5,-,N/A,,Mostly Cloudy,250,2012-11-29 06:54:00
2:54 AM,34.0,25.0,70,30.14,10.0,WNW,19.6,-,N/A,,Overcast,300,2012-11-29 07:54:00
3:07 AM,33.8,24.8,70,30.11,10.0,WNW,16.1,24.2,N/A,,Overcast,300,2012-11-29 08:07:00
3:40 AM,32.0,21.2,64,30.11,10.0,WNW,12.7,21.9,N/A,,Scattered Clouds,290,2012-11-29 08:40:00
3:54 AM,32.0,23.0,69,30.15,10.0,West,10.4,-,N/A,,Clear,280,2012-11-29 08:54:00
5:54 AM,32.0,24.1,73,30.16,10.0,West,6.9,-,N/A,,Mostly Cloudy,270,2012-11-29 10:54:00
7:54 AM,32.0,26.1,79,30.17,10.0,NNW,9.2,-,N/A,,Overcast,340,2012-11-29 12:54:00
8:54 AM,30.9,27.0,85,30.19,10.0,North,5.8,-,N/A,,Overcast,360,2012-11-29 13:54:00
9:43 AM,30.2,24.8,80,30.17,10.0,NNE,10.4,-,N/A,,Overcast,20,2012-11-29 14:43:00
9:54 AM,30.0,25.0,82,30.21,10.0,NNE,8.1,-,N/A,,Overcast,30,2012-11-29 14:54:00
10:54 AM,30.0,25.0,82,30.24,10.0,North,8.1,-,N/A,,Overcast,10,2012-11-29 15:54:00
11:54 AM,30.9,26.1,82,30.22,10.0,NNE,5.8,-,N/A,,Overcast,20,2012-11-29 16:54:00
12:54 PM,30.0,26.1,85,30.22,10.0,NE,6.9,-,N/A,,Overcast,50,2012-11-29 17:54:00
1:54 PM,30.0,25.0,82,30.22,10.0,NE,9.2,-,N/A,,Overcast,50,2012-11-29 18:54:00
2:54 PM,28.9,24.1,82,30.23,10.0,NE,6.9,-,N/A,,Overcast,50,2012-11-29 19:54:00
3:54 PM,28.0,21.0,75,30.25,10.0,NE,8.1,-,N/A,,Overcast,50,2012-11-29 20:54:00
4:54 PM,27.0,21.0,78,30.27,10.0,NE,8.1,-,N/A,,Overcast,40,2012-11-29 21:54:00
5:10 PM,26.6,19.4,74,30.25,10.0,NE,9.2,-,N/A,,Overcast,40,2012-11-29 22:10:00
5:32 PM,26.6,19.4,74,30.25,10.0,NE,5.8,-,N/A,,Overcast,50,2012-11-29 22:32:00
5:54 PM,27.0,19.9,75,30.30,10.0,NE,5.8,-,N/A,,Overcast,50,2012-11-29 22:54:00
6:36 PM,26.6,19.4,74,30.29,10.0,NE,5.8,-,N/A,,Overcast,50,2012-11-29 23:36:00
6:54 PM,26.1,19.0,75,30.32,10.0,NE,5.8,-,N/A,,Overcast,50,2012-11-29 23:54:00
7:54 PM,26.1,18.0,71,30.34,10.0,NE,6.9,-,N/A,,Overcast,50,2012-11-30 00:54:00
8:54 PM,25.0,18.0,75,30.34,10.0,NE,8.1,-,N/A,,Overcast,50,2012-11-30 01:54:00
9:42 PM,24.8,17.6,74,30.31,10.0,ENE,8.1,-,N/A,,Overcast,60,2012-11-30 02:42:00
9:54 PM,25.0,17.1,72,30.35,10.0,ENE,4.6,-,N/A,,Overcast,60,2012-11-30 02:54:00
10:49 PM,26.6,17.6,69,30.31,10.0,East,6.9,-,N/A,,Overcast,80,2012-11-30 03:49:00
10:54 PM,26.1,18.0,71,30.35,10.0,East,10.4,-,N/A,,Overcast,90,2012-11-30 03:54:00
11:17 PM,26.6,17.6,69,30.31,10.0,East,9.2,-,N/A,,Overcast,80,2012-11-30 04:17:00
11:54 PM,26.1,17.1,69,30.35,10.0,East,8.1,-,N/A,,Overcast,80,2012-11-30 04:54:00